This is the latest recevied weather packets stored in our database for station/object KQ4JKJ. If no packets are shown the sender has not sent any weather packets the latest 1 day(s).
| Time | Temp. | Humidity | Pressure | Rain* | Wind** | Luminosity | Snow |
|---|---|---|---|---|---|---|---|
| 1778027843 | 23.89° C | 72% | 1009.9 hPa | 0 mm | 0 m/s | 0 W/m² | - |
| 1778027540 | 23.89° C | 73% | 1009.8 hPa | 0 mm | 0 m/s | 0 W/m² | - |
| 1778027236 | 23.89° C | 72% | 1009.8 hPa | 0 mm | 0.45 m/s, 14° | 0 W/m² | - |
| 1778026932 | 23.89° C | 72% | 1009.7 hPa | 0 mm | 0 m/s | 0 W/m² | - |
| 1778026628 | 23.89° C | 72% | 1009.9 hPa | 0 mm | 0.45 m/s, 120° | 0 W/m² | - |
| 1778026326 | 23.89° C | 71% | 1009.7 hPa | 0 mm | 0 m/s | 0 W/m² | - |
| 1778026023 | 23.89° C | 70% | 1009.6 hPa | 0 mm | 0 m/s | 1 W/m² | - |
| 1778025720 | 24.44° C | 69% | 1009.8 hPa | 0 mm | 0.45 m/s, 14° | 2 W/m² | - |
| 1778025418 | 24.44° C | 68% | 1009.8 hPa | 0 mm | 0 m/s | 3 W/m² | - |
| 1778025115 | 24.44° C | 66% | 1009.8 hPa | 0 mm | 0 m/s | 5 W/m² | - |
| 1778024812 | 24.44° C | 66% | 1009.6 hPa | 0 mm | 0 m/s | 8 W/m² | - |
| 1778024509 | 24.44° C | 66% | 1009.7 hPa | 0 mm | 0.45 m/s, 27° | 11 W/m² | - |
| 1778024205 | 24.44° C | 66% | 1009.6 hPa | 0 mm | 0.45 m/s, 179° | 15 W/m² | - |
| 1778023903 | 25° C | 66% | 1009.7 hPa | 0 mm | 0.45 m/s, 29° | 19 W/m² | - |
| 1778023601 | 25° C | 64% | 1009.5 hPa | 0 mm | 1.34 m/s, 17° | 22 W/m² | - |
| 1778023298 | 25° C | 65% | 1009.5 hPa | 0 mm | 0.45 m/s, 38° | 25 W/m² | - |
| 1778022994 | 25° C | 64% | 1009.6 hPa | 0 mm | 0 m/s | 29 W/m² | - |
| 1778022693 | 25° C | 63% | 1009.6 hPa | 0 mm | 0 m/s | 31 W/m² | - |
| 1778022391 | 25° C | 59% | 1009.8 hPa | 0 mm | 0 m/s | 35 W/m² | - |
| 1778022087 | 25.56° C | 60% | 1009.6 hPa | 0 mm | 0.89 m/s, 68° | 39 W/m² | - |
| 1778021784 | 25.56° C | 61% | 1009.8 hPa | 0 mm | 0.89 m/s, 144° | 41 W/m² | - |
| 1778021480 | 25.56° C | 63% | 1009.8 hPa | 0 mm | 0.89 m/s, 75° | 46 W/m² | - |
| 1778021177 | 25.56° C | 64% | 1010 hPa | 0 mm | 1.79 m/s, 119° | 46 W/m² | - |
| 1778020874 | 25.56° C | 65% | 1009.8 hPa | 0 mm | 0.45 m/s, 333° | 49 W/m² | - |
| 1778020571 | 25.56° C | 63% | 1010 hPa | 0 mm | 1.79 m/s, 144° | 52 W/m² | - |
* Rain latest hour (hover to see other rain measurements)
** Current wind speed in m/s (hover to see current wind gust speed)